Вернуться в каталог

HIMAWARI 2

GMS 2

АктивенПогодаGEO
NORAD 12677·PAYLOAD·🇯🇵 Japan

Запущен Aug 10, 1981 с Tanegashima Space Center

Loading…

TLE

СвежийSource: Space-Track

Эпоха: Sep 14, 2026, 14:14 UTC

1 12677U 81076A   26257.59338775 -.00000113  00000-0  00000-0 0  9990
2 12677   7.7970 303.5635 0011610 323.1116  32.7710  0.99548462133112

Отслеживайте HIMAWARI 2 в реальном времени с AllMySat

Download on the App Store